Regional Weather Roundup
Issued by NWS Little Rock, AR

Home | Current Version | Previous Version | Graphics & Text | Print | Product List | Glossary On
Versions: 1 2 3 4 5 6 7 8 9 10 11 12 13 14 15 16 17 18 19 20 21 22 23 24 25 26 27 28 29 30 31 32 33 34 35 36 37 38 39 40 41 42 43 44 45 46 47 48 49 50
000
ASUS44 KLZK 211005
RWRLZK

WEATHER ROUNDUP FOR ARKANSAS
NATIONAL WEATHER SERVICE LITTLE ROCK AR
400 AM CST SUN DEC 21 2014

NOTE: "FAIR" INDICATES FEW OR NO CLOUDS BELOW 12,000 FEET WITH NO
SIGNIFICANT WEATHER AND/OR OBSTRUCTIONS TO VISIBILITY.

ARZ001-003-010-029-211100-
NORTHWEST ARKANSAS

CITY           SKY/WX    TMP DP  RH WIND       PRES   REMARKS
FAYETTEVILLE   CLOUDY    41  39  93 S5        30.14F
FORT SMITH     CLOUDY    44  40  85 E5        30.16F
HARRISON       CLOUDY    39  38  96 SE5       30.16F
BENTONVILLE    CLOUDY    43  37  81 S6        30.13F
ROGERS         CLOUDY    41  38  89 S8        30.13F
SILOAM SPGS    CLOUDY    43  36  75 S7        30.13F
HIGHFILL       CLOUDY    42  40  92 S7        30.12F
$$

ARZ004-005-016-211100-
NORTH CENTRAL ARKANSAS

CITY           SKY/WX    TMP DP  RH WIND       PRES   REMARKS
BATESVILLE     CLOUDY    39  36  87 CALM      30.22R
FLIPPIN        CLOUDY    39  34  81 E3        30.18F
MTN HOME       CLOUDY    38  36  92 SE3       30.17F
$$

ARZ040-041-211100-
WEST CENTRAL ARKANSAS

CITY           SKY/WX    TMP DP  RH WIND       PRES   REMARKS
MENA           CLOUDY    45  41  87 CALM      30.15F
MOUNT IDA      CLOUDY    35  33  92 CALM      30.16R FOG
$$

ARZ009-017-025-026-028-211100-
NORTHEAST ARKANSAS

CITY           SKY/WX    TMP DP  RH WIND       PRES   REMARKS
CORNING        CLOUDY    39  36  87 SE7       30.23S
JONESBORO      CLOUDY    34  32  92 NE6       30.22F WCI  29
NEWPORT        CLOUDY    38  36  92 E6        30.24S
WALNUT RIDGE   PTCLDY    37  34  87 E6        30.21F
BLYTHEVILLE    CLEAR     30  28  92 E3        30.23F
$$

ARZ022-023-033-042-044-211100-
CENTRAL ARKANSAS

CITY           SKY/WX    TMP DP  RH WIND       PRES   REMARKS
LITTLE ROCK    CLEAR     34  31  88 CALM      30.20F FOG
N LITTLE ROCK    N/A     36  35  98 NE6       30.20F
SEARCY         CLEAR     33  31  92 N3        30.22F FOG
HOT SPRINGS    MOCLDY    33  31  92 CALM      30.19F
RUSSELLVILLE   CLOUDY    42  36  79 VRB3      30.19F
CLINTON        CLOUDY    39  37  93 CALM      30.22F FOG
$$

ARZ036-211100-
EAST ARKANSAS

CITY           SKY/WX    TMP DP  RH WIND       PRES   REMARKS
WEST MEMPHIS   CLEAR     33  31  92 NE3       30.20F
$$

ARZ050-053-066-070-073-211100-
SOUTHWEST ARKANSAS

CITY           SKY/WX    TMP DP  RH WIND       PRES   REMARKS
ARKADELPHIA    FAIR      33  33 100 CALM      30.20F FOG
CAMDEN         CLEAR     30  28  93 CALM      30.19F FOG
TEXARKANA      FOG       35  35 100 NE3       30.18S VSB 1/2
EL DORADO      CLEAR     33  31  92 CALM      30.17F
DE QUEEN       CLOUDY    44  40  85 E3        30.16F
$$

ARZ056-057-069-211100-
SOUTHEAST ARKANSAS

CITY           SKY/WX    TMP DP  RH WIND       PRES   REMARKS
PINE BLUFF     CLEAR     34  32  92 CALM      30.19F FOG
STUTTGART      CLEAR     36  30  80 NE6       30.20F
MONTICELLO     CLEAR     34  32  92 CALM      30.18F

$$




USA.gov is the U.S. government's official web portal to all federal, state and local government web resources and services.